Location: Castelbiague
(43.0361°N, 0.9246°E)
Time: 07:24:29
(UTC+00:00)

USA 215 - Pass Details

Date: 19 October 2021
Orbit: 1099 x 1109 km, 123.0° (Epoch: 20 November)

Event Time Altitude Azimuth Distance (km) Brightness Sun altitude
Exits shadow 19:16:11 17° 36° (NE) 2,466 4.8 -24.3°
Maximum altitude 19:19:37 26° 354° (N) 2,001 4.7 -24.9°
Drops below altitude 10° 19:24:50 10° 301° (WNW) 2,966 6.4 -25.8°
Sets 19:27:43 0° 290° (WNW) 3,925 7.4 -26.4°
